Selawik, AK

3:23 PM AKST on February 25, 2017 (GMT -0900)
Selawik

Weather History for PASK - September, 2012

Change the Weather History Date:

Thursday, September 20, 2012

  Actual Average Record
Temperature  
Mean Temperature 42 °F -  
Max Temperature 48 °F 43 °F 57 °F (2010)
Min Temperature 37 °F 32 °F 24 °F (2003)
Degree Days  
Heating Degree Days 22    
Moisture  
Dew Point 37 °F    
Average Humidity 79    
Maximum Humidity 93    
Minimum Humidity 62    
Precipitation  
Precipitation 0.00 in - - ()
Sea Level Pressure  
Sea Level Pressure 29.63 in    
Wind  
Wind Speed 6 mph (South)    
Max Wind Speed 12 mph    
Max Gust Speed -    
Visibility 10 miles    
Events      
Averages and records for this station are not official NWS values.
T = Trace of Precipitation, MM = Missing Value Source: NWS Daily Summary

Daily Weather History Graph

Daily Weather History Graph

Search for Another Location

Airport or City:

Trip Planner

Search our weather history database for the weather conditions in past years. The results will help you decide how hot, cold, wet, or windy it might be!

Date:

Astronomy

Sep. 20, 2012 Rise Set
Actual Time 8:17 AM AKDT 8:46 PM AKDT
Civil Twilight 7:24 AM AKDT 9:39 PM AKDT
Nautical Twilight 6:18 AM AKDT 10:44 PM AKDT
Astronomical Twilight 4:56 AM AKDT 12:04 AM AKDT
Moon 4:52 PM AKDT (9/20) 8:54 PM AKDT (9/20)
Length of Visible Light 14h 14m
Length of Day
12h 28m
Waxing Crescent, 28% of the Moon is Illuminated
Sep 20
Waxing Crescent
Sep 22
First Quarter
Sep 29
Full
Oct 7
Last Quarter
Oct 15
New

Hourly Weather History & Observations

Time (AKDT) Temp. Windchill Dew Point Humidity Pressure Visibility Wind Dir Wind Speed Gust Speed Precip Events Conditions
12:16 AM 42.8 °F 39.3 °F 39.2 °F 87% 29.49 in 10.0 mi East 5.8 mph - N/A   Overcast
12:36 AM 42.8 °F 38.6 °F 39.2 °F 87% 29.50 in 10.0 mi East 6.9 mph - N/A   Overcast
12:56 AM 42.8 °F 39.3 °F 39.2 °F 87% 29.50 in 10.0 mi ENE 5.8 mph - N/A   Overcast
1:16 AM 42.8 °F 38.6 °F 39.2 °F 87% 29.50 in 10.0 mi East 6.9 mph - N/A   Overcast
1:36 AM 42.8 °F 39.3 °F 39.2 °F 87% 29.51 in 10.0 mi East 5.8 mph - N/A   Overcast
1:56 AM 42.8 °F 39.3 °F 39.2 °F 87% 29.52 in 10.0 mi East 5.8 mph - N/A   Overcast
2:16 AM 42.8 °F 39.3 °F 39.2 °F 87% 29.52 in 10.0 mi ESE 5.8 mph - N/A   Overcast
2:36 AM 42.8 °F 40.1 °F 39.2 °F 87% 29.53 in 10.0 mi ESE 4.6 mph - N/A   Overcast
2:56 AM 42.8 °F 39.3 °F 39.2 °F 87% 29.54 in 10.0 mi ESE 5.8 mph - N/A   Mostly Cloudy
3:16 AM 42.8 °F 39.3 °F 39.2 °F 87% 29.54 in 10.0 mi SE 5.8 mph - N/A   Overcast
3:36 AM 42.8 °F 41.1 °F 39.2 °F 87% 29.54 in 10.0 mi SSE 3.5 mph - N/A   Overcast
3:56 AM 42.8 °F 41.1 °F 39.2 °F 87% 29.54 in 10.0 mi SSW 3.5 mph - N/A   Overcast
4:16 AM 44.6 °F 39.7 °F 39.2 °F 81% 29.55 in 9.0 mi SW 9.2 mph - N/A   Overcast
4:36 AM 42.8 °F 38.0 °F 37.4 °F 81% 29.56 in 10.0 mi WSW 8.1 mph - N/A   Overcast
4:56 AM 42.8 °F 39.3 °F 37.4 °F 81% 29.57 in 10.0 mi SW 5.8 mph - N/A   Overcast
5:16 AM 42.8 °F 38.6 °F 37.4 °F 81% 29.58 in 10.0 mi SSW 6.9 mph - N/A   Overcast
5:36 AM 42.8 °F 40.1 °F 37.4 °F 81% 29.58 in 10.0 mi South 4.6 mph - N/A   Overcast
5:56 AM 42.8 °F 41.1 °F 37.4 °F 81% 29.58 in 10.0 mi South 3.5 mph - N/A   Overcast
6:16 AM 42.8 °F 38.6 °F 37.4 °F 81% 29.59 in 10.0 mi South 6.9 mph - N/A   Overcast
6:36 AM 42.8 °F 38.6 °F 35.6 °F 76% 29.59 in 10.0 mi South 6.9 mph - N/A   Overcast
6:56 AM 41.0 °F 38.0 °F 35.6 °F 81% 29.60 in 10.0 mi SSE 4.6 mph - N/A   Overcast
7:16 AM 41.0 °F 39.0 °F 35.6 °F 81% 29.60 in 10.0 mi SE 3.5 mph - N/A   Overcast
7:36 AM 39.2 °F 37.0 °F 35.6 °F 87% 29.61 in 10.0 mi SE 3.5 mph - N/A   Scattered Clouds
7:56 AM 37.4 °F 34.9 °F 33.8 °F 87% 29.61 in 10.0 mi South 3.5 mph - N/A   Clear
8:16 AM 37.4 °F 33.8 °F 33.8 °F 87% 29.62 in 10.0 mi SSE 4.6 mph - N/A   Partly Cloudy
8:36 AM 37.4 °F 30.3 °F 35.6 °F 93% 29.62 in 10.0 mi SSE 10.4 mph - N/A   Mostly Cloudy
8:56 AM 39.2 °F 34.2 °F 35.6 °F 87% 29.63 in 10.0 mi SSE 6.9 mph - N/A   Overcast
9:16 AM 41.0 °F 34.7 °F 37.4 °F 87% 29.63 in 10.0 mi South 10.4 mph - N/A   Overcast
9:36 AM 42.8 °F 37.5 °F 37.4 °F 81% 29.64 in 10.0 mi SSE 9.2 mph - N/A   Overcast
9:56 AM 42.8 °F 36.6 °F 37.4 °F 81% 29.64 in 10.0 mi SSE 11.5 mph - N/A   Overcast
10:16 AM 42.8 °F 37.0 °F 37.4 °F 81% 29.65 in 10.0 mi SSE 10.4 mph - N/A   Overcast
10:36 AM 42.8 °F 37.0 °F 37.4 °F 81% 29.65 in 10.0 mi SSE 10.4 mph - N/A   Overcast
10:56 AM 42.8 °F 37.5 °F 37.4 °F 81% 29.65 in 10.0 mi SSE 9.2 mph - N/A   Overcast
11:16 AM 44.6 °F 40.2 °F 37.4 °F 76% 29.66 in 10.0 mi South 8.1 mph - N/A   Overcast
11:36 AM 44.6 °F 39.2 °F 37.4 °F 76% 29.66 in 10.0 mi South 10.4 mph - N/A   Overcast
11:56 AM 44.6 °F 39.7 °F 37.4 °F 76% 29.67 in 10.0 mi SSE 9.2 mph - N/A   Overcast
12:16 PM 44.6 °F 40.2 °F 37.4 °F 76% 29.67 in 10.0 mi SSE 8.1 mph - N/A   Overcast
12:36 PM 46.4 °F 41.5 °F 39.2 °F 76% 29.67 in 10.0 mi SSE 10.4 mph - N/A   Overcast
12:56 PM 44.6 °F 39.2 °F 37.4 °F 76% 29.68 in 10.0 mi South 10.4 mph - N/A   Mostly Cloudy
1:16 PM 46.4 °F 42.4 °F 37.4 °F 71% 29.68 in 10.0 mi SSW 8.1 mph - N/A   Mostly Cloudy
1:36 PM 46.4 °F 43.5 °F 37.4 °F 71% 29.68 in 10.0 mi South 5.8 mph - N/A   Overcast
1:56 PM 46.4 °F 43.5 °F 37.4 °F 71% 29.68 in 10.0 mi South 5.8 mph - N/A   Overcast
2:16 PM 46.4 °F 41.5 °F 35.6 °F 66% 29.68 in 10.0 mi SW 10.4 mph - N/A   Overcast
2:36 PM 46.4 °F 42.9 °F 35.6 °F 66% 29.68 in 10.0 mi SSW 6.9 mph - N/A   Mostly Cloudy
2:56 PM 46.4 °F 42.9 °F 35.6 °F 66% 29.68 in 10.0 mi SW 6.9 mph - N/A   Mostly Cloudy
3:16 PM 48.2 °F - 35.6 °F 62% 29.68 in 10.0 mi South 5.8 mph - N/A   Mostly Cloudy
3:36 PM 48.2 °F - 35.6 °F 62% 29.68 in 10.0 mi SSW 4.6 mph - N/A   Mostly Cloudy
3:56 PM 48.2 °F - 37.4 °F 66% 29.68 in 10.0 mi SSE 9.2 mph - N/A   Mostly Cloudy
4:16 PM 46.4 °F 43.5 °F 35.6 °F 66% 29.68 in 10.0 mi South 5.8 mph - N/A   Mostly Cloudy
4:36 PM 48.2 °F - 37.4 °F 66% 29.68 in 10.0 mi Calm Calm - N/A   Overcast
4:56 PM 46.4 °F 42.4 °F 35.6 °F 66% 29.68 in 10.0 mi WSW 8.1 mph - N/A   Overcast
5:16 PM 46.4 °F 44.3 °F 33.8 °F 62% 29.68 in 10.0 mi West 4.6 mph - N/A   Overcast
5:36 PM 46.4 °F 43.5 °F 33.8 °F 62% 29.68 in 10.0 mi WSW 5.8 mph - N/A   Overcast
5:56 PM 46.4 °F - 35.6 °F 66% 29.68 in 10.0 mi Calm Calm - N/A   Overcast
6:16 PM 46.4 °F 44.3 °F 35.6 °F 66% 29.68 in 10.0 mi NW 4.6 mph - N/A   Overcast
6:36 PM 46.4 °F 43.5 °F 37.4 °F 71% 29.68 in 10.0 mi WNW 5.8 mph - N/A   Overcast
6:56 PM 46.4 °F 44.3 °F 37.4 °F 71% 29.68 in 10.0 mi NW 4.6 mph - N/A   Overcast
7:16 PM 44.6 °F 43.1 °F 37.4 °F 76% 29.68 in 10.0 mi WNW 3.5 mph - N/A   Overcast
7:36 PM 44.6 °F - 37.4 °F 76% 29.69 in 10.0 mi Calm Calm - N/A   Overcast
7:56 PM 44.6 °F - 37.4 °F 76% 29.70 in 10.0 mi Calm Calm - N/A   Overcast
8:36 PM 42.8 °F 40.1 °F 37.4 °F 81% 29.70 in 10.0 mi West 4.6 mph - N/A   Mostly Cloudy
8:56 PM 42.8 °F 39.3 °F 37.4 °F 81% 29.70 in 10.0 mi West 5.8 mph - N/A   Scattered Clouds
9:16 PM 42.8 °F 40.1 °F 37.4 °F 81% 29.70 in 10.0 mi West 4.6 mph - N/A   Partly Cloudy
9:36 PM 41.0 °F 38.0 °F 37.4 °F 87% 29.70 in 10.0 mi WNW 4.6 mph - N/A   Mostly Cloudy
9:56 PM 41.0 °F 39.0 °F 37.4 °F 87% 29.70 in 10.0 mi WNW 3.5 mph - N/A   Overcast
10:16 PM 41.0 °F 39.0 °F 37.4 °F 87% 29.70 in 10.0 mi WNW 3.5 mph - N/A   Overcast
10:36 PM 41.0 °F 39.0 °F 37.4 °F 87% 29.70 in 10.0 mi NW 3.5 mph - N/A   Overcast
10:56 PM 41.0 °F - 37.4 °F 87% 29.70 in 10.0 mi Calm Calm - N/A   Overcast
11:16 PM 41.0 °F 38.0 °F 35.6 °F 81% 29.70 in 10.0 mi West 4.6 mph - N/A   Overcast
11:36 PM 41.0 °F 37.1 °F 35.6 °F 81% 29.70 in 10.0 mi West 5.8 mph - N/A   Overcast
11:56 PM 39.2 °F 35.9 °F 35.6 °F 87% 29.70 in 10.0 mi West 4.6 mph - N/A   Overcast